When you browse on this site, cookies collect data to enhance your experience and personalize the content and advertising you see.
Visit our Privacy Policy to learn more. By continuing to use the site, you agree to this use of cookies and data.
  • In Portugal
  • List of Countries
  • For 7 days
  • Water Temperature
  • Satellite Maps
  • Weather Map
  • Weather Widgets
  • user-avatar
    Login

    Hourly Weather Canillo

    Today, 17 January, Thursday

    Time Temperature Precipitation Wind Pressure Humidity
    00:00 -2°C° 0 mm 1 mps 613 mmHg 70%
    01:00 -2°C° 0 mm 1 mps 613 mmHg 70%
    02:00 -2°C° 0 mm 1 mps 613 mmHg 71%
    03:00 -2°C° 0 mm 1 mps 612 mmHg 72%
    04:00 -2°C° 0 mm 1 mps 612 mmHg 76%
    05:00 -3°C° 0 mm 1 mps 612 mmHg 80%
    06:00 -3°C° 0 mm 1 mps 612 mmHg 84%
    07:00 -2°C° 0 mm 1 mps 613 mmHg 83%
    08:00 -1°C° 0 mm 1 mps 613 mmHg 81%
    09:00 0°C° 0 mm 1 mps 614 mmHg 79%
    10:00 -1°C° 0.4 mm 2 mps 614 mmHg 79%
    11:00 -1°C° 0.4 mm 2 mps 614 mmHg 78%
    12:00 +1°C° 0.4 mm 2 mps 615 mmHg 78%
    13:00 -1°C° 0.4 mm 2 mps 614 mmHg 79%
    14:00 -1°C° 0.4 mm 2 mps 614 mmHg 81%
    15:00 -2°C° 0.4 mm 2 mps 614 mmHg 82%
    16:00 -3°C° 0.2 mm 2 mps 613 mmHg 84%
    17:00 -4°C° 0.2 mm 2 mps 613 mmHg 86%
    18:00 -5°C° 0.2 mm 2 mps 613 mmHg 89%
    19:00 -5°C° 0 mm 2 mps 613 mmHg 88%
    20:00 -6°C° 0 mm 2 mps 613 mmHg 88%
    21:00 -7°C° 0 mm 2 mps 613 mmHg 87%
    22:00 -7°C° 0 mm 2 mps 613 mmHg 88%
    23:00 -7°C° 0 mm 2 mps 613 mmHg 89%

    Tomorrow, 18 January, Friday

    Time Temperature Precipitation Wind Pressure Humidity
    00:00 -7°C° 0 mm 2 mps 613 mmHg 90%
    01:00 -8°C° 0 mm 2 mps 613 mmHg 89%
    02:00 -8°C° 0 mm 2 mps 613 mmHg 89%
    03:00 -8°C° 0 mm 2 mps 612 mmHg 88%
    04:00 -8°C° 0 mm 2 mps 612 mmHg 86%
    05:00 -8°C° 0 mm 2 mps 612 mmHg 84%
    06:00 -8°C° 0 mm 2 mps 612 mmHg 82%
    07:00 -7°C° 0 mm 2 mps 612 mmHg 80%
    08:00 -4°C° 0 mm 1 mps 613 mmHg 77%
    09:00 -3°C° 0 mm 1 mps 613 mmHg 75%
    10:00 -4°C° 0 mm 2 mps 614 mmHg 70%
    11:00 -3°C° 0 mm 2 mps 614 mmHg 65%
    12:00 -1°C° 0 mm 2 mps 615 mmHg 60%
    13:00 -2°C° 0 mm 2 mps 614 mmHg 62%
    14:00 -2°C° 0 mm 2 mps 614 mmHg 64%
    15:00 -2°C° 0 mm 2 mps 613 mmHg 66%
    16:00 -2°C° 0 mm 1 mps 613 mmHg 72%
    17:00 -3°C° 0 mm 1 mps 613 mmHg 79%
    18:00 -4°C° 0 mm 1 mps 612 mmHg 85%
    19:00 -4°C° 0 mm 1 mps 612 mmHg 84%
    20:00 -4°C° 0 mm 1 mps 612 mmHg 84%
    21:00 -6°C° 0 mm 1 mps 612 mmHg 84%
    22:00 -6°C° 0 mm 1 mps 612 mmHg 84%
    23:00 -6°C° 0 mm 1 mps 612 mmHg 83%

    Day after tomorrow, 19 January, Saturday

    Time Temperature Precipitation Wind Pressure Humidity
    00:00 -7°C° 0 mm 1 mps 612 mmHg 83%
    01:00 -6°C° 0 mm 1 mps 612 mmHg 83%
    02:00 -6°C° 0 mm 1 mps 611 mmHg 83%
    03:00 -6°C° 0 mm 1 mps 611 mmHg 83%
    04:00 -6°C° 0 mm 1 mps 611 mmHg 82%
    05:00 -6°C° 0 mm 1 mps 611 mmHg 81%
    06:00 -6°C° 0 mm 1 mps 611 mmHg 80%
    07:00 -4°C° 0 mm 1 mps 611 mmHg 75%
    08:00 -3°C° 0 mm 1 mps 612 mmHg 70%
    09:00 -1°C° 0 mm 1 mps 613 mmHg 66%
    10:00 0°C° 0 mm 1 mps 613 mmHg 62%
    11:00 +1°C° 0 mm 1 mps 613 mmHg 58%
    12:00 +2°C° 0 mm 2 mps 613 mmHg 55%
    13:00 +1°C° 0 mm 2 mps 612 mmHg 59%
    14:00 +1°C° 0 mm 2 mps 612 mmHg 63%
    15:00 -1°C° 0 mm 2 mps 611 mmHg 67%
    16:00 -2°C° 0.1 mm 2 mps 610 mmHg 74%
    17:00 -3°C° 0.1 mm 2 mps 610 mmHg 80%
    18:00 -4°C° 0.1 mm 2 mps 609 mmHg 86%
    19:00 -4°C° 0.2 mm 2 mps 609 mmHg 88%
    20:00 -4°C° 0.2 mm 2 mps 609 mmHg 89%
    21:00 -4°C° 0.2 mm 2 mps 609 mmHg 91%
    22:00 -2°C° 0.1 mm 1 mps 609 mmHg 91%
    23:00 -2°C° 0.1 mm 1 mps 609 mmHg 92%

    20 January, Sunday

    Time Temperature Precipitation Wind Pressure Humidity
    00:00 -2°C° 0.1 mm 1 mps 609 mmHg 92%
    01:00 -1°C° 0.1 mm 1 mps 609 mmHg 92%
    02:00 -1°C° 0.1 mm 1 mps 609 mmHg 91%
    03:00 -1°C° 0.1 mm 1 mps 609 mmHg 90%
    04:00 -1°C° 0.1 mm 1 mps 609 mmHg 90%
    05:00 -3°C° 0.1 mm 2 mps 610 mmHg 90%
    06:00 -3°C° 0.1 mm 2 mps 610 mmHg 90%
    07:00 -3°C° 0.2 mm 2 mps 611 mmHg 89%
    08:00 -3°C° 0.2 mm 2 mps 611 mmHg 88%
    09:00 -2°C° 0.2 mm 3 mps 612 mmHg 87%
    10:00 -2°C° 0.1 mm 3 mps 613 mmHg 85%
    11:00 -2°C° 0.1 mm 3 mps 613 mmHg 82%
    12:00 -1°C° 0.1 mm 3 mps 614 mmHg 80%
    13:00 -2°C° 0.1 mm 3 mps 614 mmHg 80%
    14:00 -2°C° 0.1 mm 3 mps 614 mmHg 80%
    15:00 -2°C° 0.1 mm 3 mps 613 mmHg 80%
    16:00 -4°C° 0.1 mm 3 mps 613 mmHg 83%
    17:00 -5°C° 0.1 mm 3 mps 613 mmHg 85%
    18:00 -6°C° 0.1 mm 3 mps 613 mmHg 88%
    19:00 -6°C° 0 mm 3 mps 614 mmHg 87%
    20:00 -6°C° 0 mm 3 mps 614 mmHg 87%
    21:00 -6°C° 0 mm 3 mps 615 mmHg 87%
    22:00 -6°C° 0 mm 3 mps 615 mmHg 87%
    23:00 -6°C° 0 mm 3 mps 615 mmHg 87%

    21 January, Monday

    Time Temperature Precipitation Wind Pressure Humidity
    00:00 -6°C° 0 mm 3 mps 615 mmHg 88%
    01:00 -6°C° 0.1 mm 3 mps 615 mmHg 88%
    02:00 -6°C° 0.1 mm 3 mps 615 mmHg 88%
    03:00 -6°C° 0.1 mm 3 mps 615 mmHg 88%
    04:00 -6°C° 0.1 mm 3 mps 615 mmHg 88%
    05:00 -6°C° 0.1 mm 3 mps 615 mmHg 89%
    06:00 -6°C° 0.1 mm 3 mps 615 mmHg 89%
    07:00 -6°C° 0.1 mm 3 mps 616 mmHg 87%
    08:00 -5°C° 0.1 mm 3 mps 616 mmHg 84%
    09:00 -5°C° 0.1 mm 3 mps 617 mmHg 82%
    10:00 -4°C° 0.1 mm 3 mps 617 mmHg 78%
    11:00 -4°C° 0.1 mm 3 mps 617 mmHg 74%
    12:00 -2°C° 0.1 mm 3 mps 617 mmHg 71%
    13:00 -2°C° 0 mm 3 mps 617 mmHg 71%
    14:00 -4°C° 0 mm 3 mps 616 mmHg 71%
    15:00 -4°C° 0 mm 3 mps 616 mmHg 71%
    16:00 -4°C° 0 mm 2 mps 615 mmHg 78%
    17:00 -6°C° 0 mm 2 mps 615 mmHg 84%
    18:00 -8°C° 0 mm 2 mps 614 mmHg 90%
    19:00 -8°C° 0 mm 2 mps 614 mmHg 89%
    20:00 -9°C° 0 mm 2 mps 613 mmHg 88%
    21:00 -9°C° 0 mm 2 mps 613 mmHg 86%
    22:00 -8°C° 0 mm 1 mps 613 mmHg 82%
    23:00 -8°C° 0 mm 1 mps 612 mmHg 78%

    22 January, Tuesday

    Time Temperature Precipitation Wind Pressure Humidity
    00:00 -8°C° 0 mm 1 mps 611 mmHg 74%
    01:00 -8°C° 0 mm 1 mps 611 mmHg 69%
    02:00 -8°C° 0 mm 1 mps 610 mmHg 65%
    03:00 -8°C° 0 mm 2 mps 609 mmHg 61%
    04:00 -8°C° 0 mm 2 mps 609 mmHg 65%
    05:00 -7°C° 0 mm 2 mps 608 mmHg 69%
    06:00 -6°C° 0 mm 2 mps 607 mmHg 73%
    07:00 -6°C° 0.1 mm 2 mps 607 mmHg 76%
    08:00 -4°C° 0.1 mm 1 mps 607 mmHg 79%
    09:00 -3°C° 0.1 mm 1 mps 606 mmHg 82%
    10:00 -3°C° 0.7 mm 1 mps 606 mmHg 84%
    11:00 -5°C° 0.7 mm 2 mps 605 mmHg 86%
    12:00 -5°C° 0.7 mm 2 mps 605 mmHg 88%
    13:00 -6°C° 0.6 mm 3 mps 604 mmHg 87%
    14:00 -7°C° 0.6 mm 3 mps 604 mmHg 86%
    15:00 -7°C° 0.6 mm 3 mps 603 mmHg 85%
    16:00 -8°C° 0.1 mm 3 mps 603 mmHg 86%
    17:00 -9°C° 0.1 mm 3 mps 602 mmHg 87%
    18:00 -9°C° 0.1 mm 2 mps 602 mmHg 88%
    19:00 -9°C° 0.1 mm 2 mps 602 mmHg 88%
    20:00 -10°C° 0.1 mm 3 mps 602 mmHg 88%
    21:00 -10°C° 0.1 mm 3 mps 602 mmHg 87%
    22:00 -10°C° 0.2 mm 3 mps 601 mmHg 88%
    23:00 -10°C° 0.2 mm 3 mps 601 mmHg 88%
    Show more